This is the latest recevied weather packets stored in our database for station/object DG1ROH. If no packets are shown the sender has not sent any weather packets the latest 1 day(s).
| Time | Temp. | Humidity | Pressure | Rain* | Wind** | Luminosity | Snow |
|---|---|---|---|---|---|---|---|
| 1778001092 | 15° C | 84% | 1007.6 hPa | 0 mm | 1.34 m/s, 68° | 47 W/m² | - |
| 1778000971 | 15° C | 84% | 1007.6 hPa | 0 mm | 1.34 m/s, 344° | 47 W/m² | - |
| 1778000851 | 15° C | 84% | 1007.7 hPa | 0 mm | 1.34 m/s, 19° | 51 W/m² | - |
| 1778000731 | 15° C | 85% | 1007.6 hPa | 0 mm | 0.89 m/s, 309° | 56 W/m² | - |
| 1778000612 | 15° C | 85% | 1007.5 hPa | 0 mm | 0.89 m/s, 26° | 65 W/m² | - |
| 1778000492 | 15.56° C | 85% | 1007.6 hPa | 0 mm | 1.34 m/s, 0° | 81 W/m² | - |
| 1778000371 | 15° C | 85% | 1007.6 hPa | 0 mm | 1.34 m/s, 355° | 90 W/m² | - |
| 1778000251 | 15° C | 85% | 1007.7 hPa | 0 mm | 1.34 m/s, 44° | 95 W/m² | - |
| 1778000133 | 15° C | 85% | 1007.7 hPa | 0 mm | 1.34 m/s, 26° | 95 W/m² | - |
| 1778000012 | 15° C | 85% | 1007.6 hPa | 0 mm | 1.34 m/s, 355° | 90 W/m² | - |
| 1777999892 | 15° C | 85% | 1007.6 hPa | 0 mm | 1.34 m/s, 16° | 86 W/m² | - |
| 1777999770 | 15° C | 85% | 1007.6 hPa | 0 mm | 1.34 m/s, 35° | 77 W/m² | - |
| 1777999651 | 15.56° C | 85% | 1007.6 hPa | 0 mm | 1.34 m/s, 33° | 74 W/m² | - |
| 1777999530 | 15.56° C | 84% | 1007.5 hPa | 0 mm | 1.34 m/s, 9° | 74 W/m² | - |
| 1777999411 | 15.56° C | 84% | 1007.5 hPa | 0 mm | 1.34 m/s, 355° | 74 W/m² | - |
| 1777999290 | 15.56° C | 84% | 1007.6 hPa | 0 mm | 1.34 m/s, 346° | 74 W/m² | - |
| 1777999170 | 15.56° C | 84% | 1007.6 hPa | 0 mm | 1.34 m/s, 55° | 76 W/m² | - |
| 1777999050 | 15.56° C | 84% | 1007.6 hPa | 0 mm | 1.79 m/s, 25° | 79 W/m² | - |
| 1777998930 | 15.56° C | 84% | 1007.6 hPa | 0 mm | 1.79 m/s, 22° | 90 W/m² | - |
| 1777998810 | 15.56° C | 84% | 1007.6 hPa | 0 mm | 1.34 m/s, 46° | 100 W/m² | - |
| 1777998690 | 15.56° C | 84% | 1007.7 hPa | 0 mm | 1.79 m/s, 37° | 102 W/m² | - |
| 1777998571 | 15.56° C | 84% | 1007.7 hPa | 0 mm | 1.34 m/s, 339° | 105 W/m² | - |
| 1777998451 | 15.56° C | 84% | 1007.7 hPa | 0 mm | 1.34 m/s, 355° | 105 W/m² | - |
| 1777998330 | 15.56° C | 84% | 1007.7 hPa | 0 mm | 1.34 m/s, 97° | 107 W/m² | - |
| 1777998211 | 15.56° C | 84% | 1007.7 hPa | 0 mm | 1.79 m/s, 0° | 114 W/m² | - |
* Rain latest hour (hover to see other rain measurements)
** Current wind speed in m/s (hover to see current wind gust speed)